,,Stat5,,Stat1,,Stat2,,Stat3,,Stat4,,Wind1,,Wind1,
time,status,PA1M_AVG,status,PR1M_SUM,status,RH1M_AVG,status,SR1M_AVG,status,TA1M_AVG,status,W1dAve1m,status,W1sAve1m,
2003-03-24, 00:00:00,VALID,917.876,VALID,0,VALID,96.5758,VALID,0,VALID,20.8356,VALID,137,VALID,0.853885,
2003-03-24, 00:01:00,VALID,917.896,VALID,0,VALID,96.5644,VALID,0,VALID,20.8418,VALID,132,VALID,0.705592,
2003-03-24, 00:02:00,VALID,917.886,VALID,0,VALID,96.53,VALID,0,VALID,20.8388,VALID,122,VALID,0.958333,
2003-03-24, 00:03:00,VALID,917.904,VALID,0,VALID,96.5771,VALID,-0.0169808,VALID,20.8413,VALID,126,VALID,1.11295,
2003-03-24, 00:04:00,VALID,917.9,VALID,0,VALID,96.5351,VALID,0,VALID,20.8612,VALID,111,VALID,1.3543,
2003-03-24, 00:05:00,VALID,917.887,VALID,0,VALID,96.3584,VALID,0,VALID,20.9035,VALID,108,VALID,1.3817,
2003-03-24, 00:06:00,VALID,917.877,VALID,0,VALID,96.1753,VALID,0,VALID,20.9326,VALID,120,VALID,1.39961,
2003-03-24, 00:07:00,VALID,917.854,VALID,0,VALID,95.8256,VALID,0,VALID,20.9965,VALID,144,VALID,1.12201,
2003-03-24, 00:08:00,VALID,917.827,VALID,0,VALID,95.514,VALID,0,VALID,21.0714,VALID,133,VALID,1.07747,
2003-03-24, 00:09:00,VALID,917.797,VALID,0,VALID,95.2279,VALID,-0.0169808,VALID,21.1139,VALID,120,VALID,1.30977,
2003-03-24, 00:10:00,VALID,917.799,VALID,0,VALID,94.9609,VALID,-0.0169808,VALID,21.1492,VALID,108,VALID,1.2114,
2003-03-24, 00:11:00,VALID,917.794,VALID,0,VALID,94.6608,VALID,-0.0169808,VALID,21.194,VALID,103,VALID,1.73795,
2003-03-24, 00:12:00,VALID,917.805,VALID,0,VALID,94.395,VALID,-0.0169808,VALID,21.246,VALID,124,VALID,1.78626,
2003-03-24, 00:13:00,VALID,917.813,VALID,0,VALID,94.0949,VALID,-0.0679233,VALID,21.3045,VALID,122,VALID,0.772593,
2003-03-24, 00:14:00,VALID,917.809,VALID,0,VALID,93.9907,VALID,-0.0339617,VALID,21.3303,VALID,125,VALID,1.02701,
2003-03-24, 00:15:00,VALID,917.808,VALID,0,VALID,93.88,VALID,0,VALID,21.3592,VALID,127,VALID,1.03365,
2003-03-24, 00:16:00,VALID,917.81,VALID,0,VALID,93.7885,VALID,-0.0169808,VALID,21.3821,VALID,134,VALID,0.838682,
2003-03-24, 00:17:00,VALID,917.82,VALID,0,VALID,93.7567,VALID,0,VALID,21.3815,VALID,139,VALID,0.785373,
2003-03-24, 00:18:00,VALID,917.811,VALID,0,VALID,93.7592,VALID,-0.0169808,VALID,21.3651,VALID,145,VALID,0.922656,
2003-03-24, 00:19:00,VALID,917.818,VALID,0,VALID,93.8063,VALID,-0.0169808,VALID,21.3656,VALID,143,VALID,1.08111,
2003-03-24, 00:20:00,VALID,917.801,VALID,0,VALID,93.95,VALID,-0.0169808,VALID,21.3457,VALID,133,VALID,1.14301,
2003-03-24, 00:21:00,VALID,917.773,VALID,0,VALID,94.0339,VALID,0,VALID,21.3193,VALID,140,VALID,0.746875,
2003-03-24, 00:22:00,VALID,917.764,VALID,0,VALID,94.1305,VALID,0,VALID,21.3236,VALID,109,VALID,0.580882,
2003-03-24, 00:23:00,VALID,917.778,VALID,0,VALID,94.2017,VALID,0.0169808,VALID,21.2934,VALID,129,VALID,0.64308,
2003-03-24, 00:24:00,VALID,917.77,VALID,0,VALID,94.3098,VALID,0,VALID,21.284,VALID,116,VALID,0.708934,
2003-03-24, 00:25:00,VALID,917.77,VALID,0,VALID,94.32,VALID,-0.0169808,VALID,21.274,VALID,145,VALID,0.683699,
2003-03-24, 00:26:00,VALID,917.771,VALID,0,VALID,94.3162,VALID,0,VALID,21.2807,VALID,231,VALID,0.567634,
2003-03-24, 00:27:00,VALID,917.789,VALID,0,VALID,94.2818,VALID,0,VALID,21.2419,VALID,232,VALID,0.869992,
2003-03-24, 00:28:00,VALID,917.777,VALID,0,VALID,94.4281,VALID,0,VALID,21.1969,VALID,238,VALID,1.17378,
2003-03-24, 00:29:00,VALID,917.798,VALID,0,VALID,94.7841,VALID,0,VALID,21.0962,VALID,254,VALID,1.21549,
2003-03-24, 00:30:00,VALID,917.797,VALID,0,VALID,95.2419,VALID,0,VALID,21.0027,VALID,267,VALID,1.10742,
2003-03-24, 00:31:00,VALID,917.801,VALID,0,VALID,95.6425,VALID,0,VALID,20.935,VALID,257,VALID,0.878906,
2003-03-24, 00:32:00,VALID,917.788,VALID,0,VALID,95.9578,VALID,-0.0169808,VALID,20.8634,VALID,253,VALID,0.704644,
2003-03-24, 00:33:00,VALID,917.768,VALID,0,VALID,96.2223,VALID,0,VALID,20.8249,VALID,253,VALID,0.398633,
2003-03-24, 00:34:00,VALID,917.756,VALID,0,VALID,96.4817,VALID,0,VALID,20.8022,VALID,243,VALID,0.461627,
2003-03-24, 00:35:00,VALID,917.753,VALID,0,VALID,96.6089,VALID,0,VALID,20.7729,VALID,172,VALID,0.960268,
2003-03-24, 00:36:00,VALID,917.739,VALID,0,VALID,96.7144,VALID,0,VALID,20.7537,VALID,154,VALID,0.359776,
2003-03-24, 00:37:00,VALID,917.712,VALID,0,VALID,96.9141,VALID,-0.0169808,VALID,20.7341,VALID,201,VALID,0.262669,
2003-03-24, 00:38:00,VALID,917.701,VALID,0,VALID,97.0349,VALID,0,VALID,20.7443,VALID,231,VALID,0.0671875,
2003-03-24, 00:39:00,VALID,917.69,VALID,0,VALID,97.0374,VALID,0,VALID,20.7349,VALID,231,VALID,0,
2003-03-24, 00:40:00,VALID,917.696,VALID,0,VALID,97.1252,VALID,-0.0169808,VALID,20.7343,VALID,317,VALID,0.370144,
2003-03-24, 00:41:00,VALID,917.714,VALID,0,VALID,97.1798,VALID,0,VALID,20.7279,VALID,3,VALID,0.641493,
2003-03-24, 00:42:00,VALID,917.732,VALID,0,VALID,97.1595,VALID,0,VALID,20.7082,VALID,16,VALID,0.809375,
2003-03-24, 00:43:00,VALID,917.736,VALID,0,VALID,97.1926,VALID,0,VALID,20.7155,VALID,16,VALID,0.727252,
2003-03-24, 00:44:00,VALID,917.714,VALID,0,VALID,97.2765,VALID,0,VALID,20.6988,VALID,16,VALID,0.515625,
2003-03-24, 00:45:00,VALID,917.702,VALID,0,VALID,97.3833,VALID,0.0509425,VALID,20.7214,VALID,16,VALID,0.439063,
2003-03-24, 00:46:00,VALID,917.692,VALID,0,VALID,97.4545,VALID,0,VALID,20.7343,VALID,16,VALID,0.308134,
2003-03-24, 00:47:00,VALID,917.668,VALID,0,VALID,97.527,VALID,0,VALID,20.7634,VALID,16,VALID,0.152455,
2003-03-24, 00:48:00,VALID,917.628,VALID,0,VALID,97.4876,VALID,-0.0169808,VALID,20.7898,VALID,16,VALID,0.000400641,
2003-03-24, 00:49:00,VALID,917.6,VALID,0,VALID,97.3782,VALID,-0.0169808,VALID,20.8062,VALID,105,VALID,0.329814,
2003-03-24, 00:50:00,VALID,917.566,VALID,0,VALID,97.396,VALID,0.0169808,VALID,20.8184,VALID,150,VALID,0.661607,
2003-03-24, 00:51:00,VALID,917.538,VALID,0,VALID,97.3197,VALID,-0.0169808,VALID,20.8507,VALID,164,VALID,0.878005,
2003-03-24, 00:52:00,VALID,917.51,VALID,0,VALID,97.0857,VALID,0,VALID,20.8863,VALID,152,VALID,0.797508,
2003-03-24, 00:53:00,VALID,917.497,VALID,0,VALID,96.8149,VALID,0,VALID,20.9127,VALID,151,VALID,1.21159,
2003-03-24, 00:54:00,VALID,917.481,VALID,0,VALID,96.7195,VALID,-0.0169808,VALID,20.903,VALID,149,VALID,0.794727,
2003-03-24, 00:55:00,VALID,917.5,VALID,0,VALID,96.7348,VALID,0,VALID,20.8893,VALID,133,VALID,0.363741,
2003-03-24, 00:56:00,VALID,917.504,VALID,0,VALID,96.7513,VALID,-0.0169808,VALID,20.8868,VALID,98,VALID,0.434028,
2003-03-24, 00:57:00,VALID,917.538,VALID,0,VALID,96.675,VALID,-0.0339617,VALID,20.8803,VALID,78,VALID,0.391211,
2003-03-24, 00:58:00,VALID,917.566,VALID,0,VALID,96.6292,VALID,-0.0339617,VALID,20.8679,VALID,64,VALID,0.394301,
2003-03-24, 00:59:00,VALID,917.581,VALID,0,VALID,96.8263,VALID,0,VALID,20.8647,VALID,104,VALID,0.408929,
2003-03-24, 01:00:00,VALID,917.597,VALID,0,VALID,96.853,VALID,0,VALID,20.8672,VALID,136,VALID,0.577097,
2003-03-24, 01:01:00,VALID,917.575,VALID,0,VALID,96.8225,VALID,-0.0169808,VALID,20.8739,VALID,152,VALID,0.653294,
2003-03-24, 01:02:00,VALID,917.557,VALID,0,VALID,96.82,VALID,0,VALID,20.8704,VALID,165,VALID,0.586161,
2003-03-24, 01:03:00,VALID,917.511,VALID,0,VALID,96.8543,VALID,-0.0169808,VALID,20.8734,VALID,173,VALID,0.314503,
2003-03-24, 01:04:00,VALID,917.491,VALID,0,VALID,96.8746,VALID,-0.0339617,VALID,20.8841,VALID,101,VALID,0.285895,
2003-03-24, 01:05:00,VALID,917.478,VALID,0,VALID,96.8518,VALID,-0.0169808,VALID,20.8736,VALID,52,VALID,0.755425,
2003-03-24, 01:06:00,VALID,917.466,VALID,0,VALID,96.8568,VALID,-0.0169808,VALID,20.8637,VALID,44,VALID,1.00508,
2003-03-24, 01:07:00,VALID,917.434,VALID,0,VALID,96.7767,VALID,-0.0169808,VALID,20.8542,VALID,49,VALID,0.718061,
2003-03-24, 01:08:00,VALID,917.397,VALID,0,VALID,96.7513,VALID,-0.0169808,VALID,20.8348,VALID,50,VALID,0.577908,
2003-03-24, 01:09:00,VALID,917.378,VALID,0,VALID,96.7577,VALID,0,VALID,20.8222,VALID,50,VALID,0.398828,
2003-03-24, 01:10:00,VALID,917.344,VALID,0,VALID,96.8988,VALID,0,VALID,20.8122,VALID,51,VALID,0.490579,
2003-03-24, 01:11:00,VALID,917.322,VALID,0,VALID,97.0094,VALID,0,VALID,20.8181,VALID,59,VALID,0.399777,
2003-03-24, 01:12:00,VALID,917.314,VALID,0,VALID,97.0349,VALID,-0.0169808,VALID,20.8378,VALID,114,VALID,0.434896,
2003-03-24, 01:13:00,VALID,917.307,VALID,0,VALID,97.0654,VALID,0,VALID,20.8547,VALID,131,VALID,0.552576,
2003-03-24, 01:14:00,VALID,917.308,VALID,0,VALID,96.9955,VALID,-0.0169808,VALID,20.8712,VALID,142,VALID,0.760491,
2003-03-24, 01:15:00,VALID,917.328,VALID,0,VALID,96.9675,VALID,-0.0169808,VALID,20.8644,VALID,142,VALID,0.473357,
2003-03-24, 01:16:00,VALID,917.322,VALID,0,VALID,96.9675,VALID,-0.0169808,VALID,20.8674,VALID,145,VALID,0.590794,
2003-03-24, 01:17:00,VALID,917.328,VALID,0,VALID,97.059,VALID,0,VALID,20.8639,VALID,129,VALID,0.776259,
2003-03-24, 01:18:00,VALID,917.316,VALID,0,VALID,97.1099,VALID,0,VALID,20.9,VALID,148,VALID,0.936719,
2003-03-24, 01:19:00,VALID,917.287,VALID,0,VALID,97.0807,VALID,-0.0169808,VALID,20.9189,VALID,147,VALID,0.942555,
2003-03-24, 01:20:00,VALID,917.264,VALID,0,VALID,97.0311,VALID,-0.0169808,VALID,20.9318,VALID,144,VALID,0.544922,
2003-03-24, 01:21:00,VALID,917.264,VALID,0,VALID,96.9344,VALID,0,VALID,20.9512,VALID,124,VALID,0.461328,
2003-03-24, 01:22:00,VALID,917.246,VALID,0,VALID,96.8594,VALID,0,VALID,20.9644,VALID,100,VALID,0.479779,
2003-03-24, 01:23:00,VALID,917.216,VALID,0,VALID,96.7895,VALID,-0.0339617,VALID,20.9773,VALID,109,VALID,0.309375,
2003-03-24, 01:24:00,VALID,917.217,VALID,0,VALID,96.7348,VALID,-0.0169808,VALID,20.994,VALID,109,VALID,0.167468,
2003-03-24, 01:25:00,VALID,917.194,VALID,0,VALID,96.6737,VALID,-0.0339617,VALID,20.997,VALID,109,VALID,0.0291385,
2003-03-24, 01:26:00,VALID,917.187,VALID,0,VALID,96.6814,VALID,-0.0339617,VALID,20.9967,VALID,109,VALID,0.0430804,
2003-03-24, 01:27:00,VALID,917.207,VALID,0,VALID,96.703,VALID,0,VALID,21.0099,VALID,109,VALID,0,
2003-03-24, 01:28:00,VALID,917.212,VALID,0,VALID,96.6521,VALID,-0.0169808,VALID,21.0134,VALID,109,VALID,0,
2003-03-24, 01:29:00,VALID,917.234,VALID,0,VALID,96.6725,VALID,-0.0509425,VALID,21.0229,VALID,109,VALID,0,
2003-03-24, 01:30:00,VALID,917.234,VALID,0,VALID,96.7488,VALID,-0.0509425,VALID,21.049,VALID,109,VALID,0,
2003-03-24, 01:31:00,VALID,917.242,VALID,0,VALID,96.6737,VALID,-0.0339617,VALID,21.052,VALID,109,VALID,0,
2003-03-24, 01:32:00,VALID,917.226,VALID,0,VALID,96.6598,VALID,-0.0339617,VALID,21.0547,VALID,109,VALID,0,
2003-03-24, 01:33:00,VALID,917.217,VALID,0,VALID,96.6343,VALID,-0.0849042,VALID,21.0714,VALID,109,VALID,0,
2003-03-24, 01:34:00,VALID,917.205,VALID,0,VALID,96.5974,VALID,-0.0509425,VALID,21.0778,VALID,109,VALID,0.0174632,
2003-03-24, 01:35:00,VALID,917.205,VALID,0,VALID,96.5618,VALID,-0.0509425,VALID,21.0902,VALID,109,VALID,0,
2003-03-24, 01:36:00,VALID,917.192,VALID,0,VALID,96.4677,VALID,-0.0169808,VALID,21.091,VALID,109,VALID,0,
2003-03-24, 01:37:00,VALID,917.171,VALID,0,VALID,96.4792,VALID,-0.0339617,VALID,21.0908,VALID,109,VALID,0,
2003-03-24, 01:38:00,VALID,917.168,VALID,0,VALID,96.469,VALID,-0.0509425,VALID,21.0937,VALID,109,VALID,0,
2003-03-24, 01:39:00,VALID,917.17,VALID,0,VALID,96.5428,VALID,-0.0339617,VALID,21.1069,VALID,109,VALID,0,
2003-03-24, 01:40:00,VALID,917.193,VALID,0,VALID,96.5199,VALID,-0.0849042,VALID,21.1196,VALID,109,VALID,0,
2003-03-24, 01:41:00,VALID,917.188,VALID,0,VALID,96.4855,VALID,-0.0169808,VALID,21.1328,VALID,109,VALID,0,
2003-03-24, 01:42:00,VALID,917.196,VALID,0,VALID,96.4576,VALID,-0.0339617,VALID,21.1457,VALID,109,VALID,0,
2003-03-24, 01:43:00,VALID,917.197,VALID,0,VALID,96.4194,VALID,-0.0169808,VALID,21.1519,VALID,109,VALID,0.0707721,
2003-03-24, 01:44:00,VALID,917.189,VALID,0,VALID,96.3596,VALID,-0.0339617,VALID,21.1587,VALID,109,VALID,0.2602,
2003-03-24, 01:45:00,VALID,917.202,VALID,0,VALID,96.3342,VALID,-0.0339617,VALID,21.1587,VALID,110,VALID,0.327148,
2003-03-24, 01:46:00,VALID,917.193,VALID,0,VALID,96.2935,VALID,-0.0339617,VALID,21.1627,VALID,138,VALID,0.590993,
2003-03-24, 01:47:00,VALID,917.167,VALID,0,VALID,96.2834,VALID,-0.0679233,VALID,21.1428,VALID,150,VALID,0.785045,
2003-03-24, 01:48:00,VALID,917.151,VALID,0,VALID,96.319,VALID,-0.0509425,VALID,21.1234,VALID,152,VALID,0.813702,
2003-03-24, 01:49:00,VALID,917.162,VALID,0,VALID,96.3825,VALID,-0.0679233,VALID,21.1099,VALID,158,VALID,0.757813,
2003-03-24, 01:50:00,VALID,917.154,VALID,0,VALID,96.4461,VALID,-0.0509425,VALID,21.077,VALID,175,VALID,0.801339,
2003-03-24, 01:51:00,VALID,917.133,VALID,0,VALID,96.4677,VALID,-0.0509425,VALID,21.0781,VALID,174,VALID,1.1885,
2003-03-24, 01:52:00,VALID,917.118,VALID,0,VALID,96.497,VALID,-0.101885,VALID,21.0681,VALID,172,VALID,1.25802,
2003-03-24, 01:53:00,VALID,917.102,VALID,0,VALID,96.5186,VALID,-0.0509425,VALID,21.0555,VALID,171,VALID,1.15365,
2003-03-24, 01:54:00,VALID,917.098,VALID,0,VALID,96.5542,VALID,-0.0849042,VALID,21.0555,VALID,168,VALID,0.720508,
2003-03-24, 01:55:00,VALID,917.09,VALID,0,VALID,96.6216,VALID,-0.0509425,VALID,21.042,VALID,146,VALID,0.350873,
2003-03-24, 01:56:00,VALID,917.095,VALID,0,VALID,96.6229,VALID,-0.0679233,VALID,21.049,VALID,153,VALID,0.955295,
2003-03-24, 01:57:00,VALID,917.083,VALID,0,VALID,96.6648,VALID,-0.0509425,VALID,21.0455,VALID,154,VALID,0.644141,
2003-03-24, 01:58:00,VALID,917.093,VALID,0,VALID,96.7399,VALID,-0.0339617,VALID,21.039,VALID,167,VALID,0.731158,
2003-03-24, 01:59:00,VALID,917.062,VALID,0,VALID,96.7742,VALID,-0.0849042,VALID,21.0323,VALID,171,VALID,0.446652,
2003-03-24, 02:00:00,VALID,917.039,VALID,0,VALID,96.8416,VALID,-0.0679233,VALID,21.039,VALID,172,VALID,0.0088141,
2003-03-24, 02:01:00,VALID,917.057,VALID,0,VALID,96.8772,VALID,-0.0169808,VALID,21.0579,VALID,172,VALID,0,
2003-03-24, 02:02:00,VALID,917.025,VALID,0,VALID,96.8823,VALID,-0.0339617,VALID,21.0676,VALID,172,VALID,0.0337054,
2003-03-24, 02:03:00,VALID,917.027,VALID,0,VALID,96.9331,VALID,-0.0849042,VALID,21.0584,VALID,189,VALID,0.0633013,
2003-03-24, 02:04:00,VALID,917.018,VALID,0,VALID,96.9052,VALID,-0.0169808,VALID,21.0638,VALID,271,VALID,0.268159,
2003-03-24, 02:05:00,VALID,917.004,VALID,0,VALID,96.839,VALID,-0.0339617,VALID,21.0649,VALID,291,VALID,0.264106,
2003-03-24, 02:06:00,VALID,917.029,VALID,0,VALID,96.8657,VALID,-0.0849042,VALID,21.0719,VALID,294,VALID,0.200195,
2003-03-24, 02:07:00,VALID,917.042,VALID,0,VALID,96.8797,VALID,-0.0339617,VALID,21.0805,VALID,294,VALID,0.0507813,
2003-03-24, 02:08:00,VALID,917.055,VALID,0,VALID,96.9268,VALID,0.0509425,VALID,21.0989,VALID,294,VALID,0,
2003-03-24, 02:09:00,VALID,917.045,VALID,0,VALID,96.9141,VALID,0.0509425,VALID,21.108,VALID,294,VALID,0.0285156,
2003-03-24, 02:10:00,VALID,917.059,VALID,0,VALID,96.8162,VALID,0.0509425,VALID,21.1242,VALID,300,VALID,0.152344,
2003-03-24, 02:11:00,VALID,917.065,VALID,0,VALID,96.6598,VALID,0.0849042,VALID,21.1247,VALID,301,VALID,0.153795,
2003-03-24, 02:12:00,VALID,917.062,VALID,0,VALID,96.5021,VALID,0.0509425,VALID,21.1018,VALID,301,VALID,0.0965545,
2003-03-24, 02:13:00,VALID,917.045,VALID,0,VALID,96.5758,VALID,0.0679233,VALID,21.079,VALID,301,VALID,0.228463,
2003-03-24, 02:14:00,VALID,917.029,VALID,0,VALID,96.5949,VALID,0.0849042,VALID,21.0765,VALID,302,VALID,0.369866,
2003-03-24, 02:15:00,VALID,917.007,VALID,0,VALID,96.6508,VALID,0.0679233,VALID,21.0464,VALID,302,VALID,0.214944,
2003-03-24, 02:16:00,VALID,916.998,VALID,0,VALID,96.7284,VALID,0.0339617,VALID,21.0531,VALID,16,VALID,0.369721,
2003-03-24, 02:17:00,VALID,916.985,VALID,0,VALID,96.7348,VALID,0.0339617,VALID,21.0469,VALID,96,VALID,0.599392,
2003-03-24, 02:18:00,VALID,916.993,VALID,0,VALID,96.7869,VALID,0.0169808,VALID,21.0501,VALID,96,VALID,0.383789,
2003-03-24, 02:19:00,VALID,916.986,VALID,0,VALID,96.8352,VALID,0.0509425,VALID,21.0399,VALID,104,VALID,0.704274,
2003-03-24, 02:20:00,VALID,916.982,VALID,0,VALID,96.8899,VALID,0.0679233,VALID,21.0442,VALID,109,VALID,0.505859,
2003-03-24, 02:21:00,VALID,917.01,VALID,0,VALID,96.9331,VALID,0.0339617,VALID,21.0404,VALID,100,VALID,0.420117,
2003-03-24, 02:22:00,VALID,917.03,VALID,0,VALID,96.9344,VALID,0,VALID,21.0504,VALID,97,VALID,0.560662,
2003-03-24, 02:23:00,VALID,917.055,VALID,0,VALID,96.97,VALID,0.0339617,VALID,21.0469,VALID,76,VALID,0.578348,
2003-03-24, 02:24:00,VALID,917.079,VALID,0,VALID,96.9815,VALID,0,VALID,21.0571,VALID,118,VALID,0.429688,
2003-03-24, 02:25:00,VALID,917.095,VALID,0,VALID,96.9802,VALID,0,VALID,21.0603,VALID,106,VALID,1.14506,
2003-03-24, 02:26:00,VALID,917.098,VALID,0,VALID,97.0285,VALID,0,VALID,21.0504,VALID,124,VALID,1.10045,
2003-03-24, 02:27:00,VALID,917.106,VALID,0,VALID,97.0603,VALID,0,VALID,21.0409,VALID,107,VALID,1.01583,
2003-03-24, 02:28:00,VALID,917.127,VALID,0,VALID,97.04,VALID,0,VALID,21.0146,VALID,103,VALID,1.32939,
2003-03-24, 02:29:00,VALID,917.136,VALID,0,VALID,97.0984,VALID,0,VALID,20.9987,VALID,105,VALID,0.996962,
2003-03-24, 02:30:00,VALID,917.143,VALID,0.2,VALID,97.1989,VALID,0.0169808,VALID,20.9825,VALID,85,VALID,0.827734,
2003-03-24, 02:31:00,VALID,917.144,VALID,0.6,VALID,97.3362,VALID,0.0169808,VALID,20.9631,VALID,99,VALID,1.30216,
2003-03-24, 02:32:00,VALID,917.149,VALID,0.8,VALID,97.5283,VALID,0.0509425,VALID,20.9211,VALID,102,VALID,1.41884,
2003-03-24, 02:33:00,VALID,917.16,VALID,1,VALID,97.7673,VALID,0,VALID,20.8664,VALID,106,VALID,1.04141,
2003-03-24, 02:34:00,VALID,916.719,VALID,1.4,VALID,98.042,VALID,-0.0169808,VALID,20.8211,VALID,111,VALID,1.46025,
2003-03-24, 02:35:00,VALID,917.138,VALID,0.8,VALID,98.3179,VALID,0,VALID,20.7756,VALID,110,VALID,0.868973,
2003-03-24, 02:36:00,VALID,917.122,VALID,0.6,VALID,98.5506,VALID,0,VALID,20.7694,VALID,156,VALID,0.973558,
2003-03-24, 02:37:00,VALID,917.102,VALID,1,VALID,98.7159,VALID,0.0169808,VALID,20.7532,VALID,141,VALID,1.59481,
2003-03-24, 02:38:00,VALID,917.083,VALID,1,VALID,98.8049,VALID,0,VALID,20.7338,VALID,130,VALID,1.77031,
2003-03-24, 02:39:00,VALID,917.063,VALID,0.8,VALID,98.8901,VALID,0.0169808,VALID,20.701,VALID,140,VALID,0.981971,
2003-03-24, 02:40:00,VALID,917.05,VALID,1,VALID,98.9461,VALID,0.0169808,VALID,20.6883,VALID,131,VALID,0.103674,
2003-03-24, 02:41:00,VALID,917.009,VALID,1.2,VALID,99.0466,VALID,0.0339617,VALID,20.6851,VALID,131,VALID,0,
2003-03-24, 02:42:00,VALID,916.985,VALID,1,VALID,99.1114,VALID,0,VALID,20.6983,VALID,138,VALID,0.0291016,
2003-03-24, 02:43:00,VALID,916.954,VALID,0.4,VALID,99.1216,VALID,0,VALID,20.6721,VALID,280,VALID,0.828355,
2003-03-24, 02:44:00,VALID,916.904,VALID,0,VALID,99.0186,VALID,0.0169808,VALID,20.6401,VALID,290,VALID,1.30859,
2003-03-24, 02:45:00,VALID,916.882,VALID,0.2,VALID,98.8507,VALID,0,VALID,20.6174,VALID,304,VALID,0.777539,
2003-03-24, 02:46:00,VALID,916.85,VALID,0,VALID,98.8622,VALID,0,VALID,20.5848,VALID,349,VALID,0.780101,
2003-03-24, 02:47:00,VALID,916.846,VALID,0,VALID,98.9372,VALID,0.0339617,VALID,20.5819,VALID,65,VALID,0.578571,
2003-03-24, 02:48:00,VALID,916.852,VALID,0,VALID,99.0059,VALID,0,VALID,20.5555,VALID,101,VALID,0.783654,
2003-03-24, 02:49:00,VALID,916.852,VALID,0,VALID,99.0605,VALID,0,VALID,20.5401,VALID,103,VALID,1.04835,
2003-03-24, 02:50:00,VALID,916.857,VALID,0,VALID,99.1674,VALID,0,VALID,20.5428,VALID,108,VALID,1.35625,
2003-03-24, 02:51:00,VALID,916.849,VALID,0,VALID,99.1941,VALID,0.0509425,VALID,20.5463,VALID,123,VALID,1.11959,
2003-03-24, 02:52:00,VALID,916.851,VALID,0,VALID,99.1991,VALID,0,VALID,20.5501,VALID,111,VALID,1.07665,
2003-03-24, 02:53:00,VALID,916.818,VALID,0,VALID,99.2322,VALID,0,VALID,20.5398,VALID,134,VALID,0.803819,
2003-03-24, 02:54:00,VALID,916.81,VALID,0,VALID,99.2513,VALID,0.0169808,VALID,20.5267,VALID,116,VALID,0.984375,
2003-03-24, 02:55:00,VALID,916.774,VALID,0,VALID,99.2551,VALID,0,VALID,20.5272,VALID,114,VALID,0.953125,
2003-03-24, 02:56:00,VALID,916.762,VALID,0,VALID,99.278,VALID,0,VALID,20.5172,VALID,119,VALID,0.887153,
2003-03-24, 02:57:00,VALID,916.725,VALID,0,VALID,99.3098,VALID,0,VALID,20.5175,VALID,122,VALID,0.791602,
2003-03-24, 02:58:00,VALID,916.713,VALID,0,VALID,99.353,VALID,0.0339617,VALID,20.514,VALID,133,VALID,0.626838,
2003-03-24, 02:59:00,VALID,916.707,VALID,0,VALID,99.3644,VALID,0,VALID,20.5078,VALID,125,VALID,0.619643,
2003-03-24, 03:00:00,VALID,916.696,VALID,0,VALID,99.3912,VALID,0,VALID,20.5239,VALID,130,VALID,0.746595,
2003-03-24, 03:01:00,VALID,916.696,VALID,0,VALID,99.3937,VALID,0.0169808,VALID,20.514,VALID,144,VALID,1.20101,
2003-03-24, 03:02:00,VALID,916.692,VALID,0,VALID,99.4102,VALID,-0.0169808,VALID,20.5075,VALID,122,VALID,0.478348,
2003-03-24, 03:03:00,VALID,916.674,VALID,0,VALID,99.4217,VALID,0,VALID,20.5045,VALID,112,VALID,0.904447,
2003-03-24, 03:04:00,VALID,916.654,VALID,0,VALID,99.4382,VALID,0,VALID,20.5043,VALID,115,VALID,0.860008,
2003-03-24, 03:05:00,VALID,916.655,VALID,0,VALID,99.456,VALID,0,VALID,20.4976,VALID,142,VALID,0.816623,
2003-03-24, 03:06:00,VALID,916.629,VALID,0,VALID,99.4624,VALID,0,VALID,20.5108,VALID,138,VALID,0.923242,
2003-03-24, 03:07:00,VALID,916.622,VALID,0,VALID,99.4687,VALID,0,VALID,20.4911,VALID,129,VALID,0.753676,
2003-03-24, 03:08:00,VALID,916.617,VALID,0,VALID,99.4751,VALID,0.0169808,VALID,20.5075,VALID,106,VALID,0.662543,
2003-03-24, 03:09:00,VALID,916.601,VALID,0,VALID,99.498,VALID,0.0339617,VALID,20.5011,VALID,101,VALID,0.464453,
2003-03-24, 03:10:00,VALID,916.589,VALID,0,VALID,99.4942,VALID,0.0169808,VALID,20.4981,VALID,144,VALID,0.817325,
2003-03-24, 03:11:00,VALID,916.577,VALID,0,VALID,99.5081,VALID,0.0169808,VALID,20.5011,VALID,147,VALID,0.954464,
2003-03-24, 03:12:00,VALID,916.589,VALID,0,VALID,99.5081,VALID,0.0169808,VALID,20.5011,VALID,152,VALID,0.982171,
2003-03-24, 03:13:00,VALID,916.611,VALID,0,VALID,99.5196,VALID,0,VALID,20.4914,VALID,142,VALID,1.11951,
2003-03-24, 03:14:00,VALID,916.628,VALID,0,VALID,99.5158,VALID,0.0339617,VALID,20.4784,VALID,134,VALID,1.20112,
2003-03-24, 03:15:00,VALID,916.646,VALID,0,VALID,99.5145,VALID,0,VALID,20.472,VALID,140,VALID,1.30569,
2003-03-24, 03:16:00,VALID,916.649,VALID,0,VALID,99.5285,VALID,0.0169808,VALID,20.4849,VALID,136,VALID,0.943623,
2003-03-24, 03:17:00,VALID,916.665,VALID,0,VALID,99.5412,VALID,0,VALID,20.4983,VALID,154,VALID,1.36393,
2003-03-24, 03:18:00,VALID,916.65,VALID,0,VALID,99.5374,VALID,0,VALID,20.5115,VALID,151,VALID,1.07324,
2003-03-24, 03:19:00,VALID,916.665,VALID,0,VALID,99.5323,VALID,0,VALID,20.4906,VALID,151,VALID,1.63557,
2003-03-24, 03:20:00,VALID,916.658,VALID,0,VALID,99.531,VALID,0.0169808,VALID,20.4983,VALID,158,VALID,0.914497,
2003-03-24, 03:21:00,VALID,916.632,VALID,0,VALID,99.5323,VALID,0.0169808,VALID,20.4819,VALID,174,VALID,0.908984,
2003-03-24, 03:22:00,VALID,916.625,VALID,0,VALID,99.5323,VALID,0.0339617,VALID,20.4717,VALID,158,VALID,1.03562,
2003-03-24, 03:23:00,VALID,916.615,VALID,0,VALID,99.5374,VALID,0.101885,VALID,20.4886,VALID,163,VALID,0.902232,
2003-03-24, 03:24:00,VALID,916.605,VALID,0,VALID,99.531,VALID,0.101885,VALID,20.4687,VALID,150,VALID,0.430689,
2003-03-24, 03:25:00,VALID,916.606,VALID,0,VALID,99.5425,VALID,0.0849042,VALID,20.4687,VALID,134,VALID,0.589105,
2003-03-24, 03:26:00,VALID,916.607,VALID,0.2,VALID,99.5501,VALID,0.0849042,VALID,20.4658,VALID,157,VALID,0.904514,
2003-03-24, 03:27:00,VALID,916.6,VALID,0.2,VALID,99.545,VALID,0.0679233,VALID,20.459,VALID,153,VALID,0.767228,
2003-03-24, 03:28:00,VALID,916.591,VALID,0,VALID,99.5463,VALID,0.0679233,VALID,20.4461,VALID,165,VALID,0.743032,
2003-03-24, 03:29:00,VALID,916.572,VALID,0,VALID,99.5463,VALID,0.0849042,VALID,20.459,VALID,145,VALID,0.590278,
2003-03-24, 03:30:00,VALID,916.562,VALID,0,VALID,99.5577,VALID,0.101885,VALID,20.4687,VALID,155,VALID,0.520312,
2003-03-24, 03:31:00,VALID,916.573,VALID,0,VALID,99.5603,VALID,0.0849042,VALID,20.4623,VALID,161,VALID,0.474954,
2003-03-24, 03:32:00,VALID,916.569,VALID,0,VALID,99.5692,VALID,0.101885,VALID,20.4493,VALID,171,VALID,0.748264,
2003-03-24, 03:33:00,VALID,916.583,VALID,0,VALID,99.5679,VALID,0.0849042,VALID,20.4528,VALID,155,VALID,0.728516,
2003-03-24, 03:34:00,VALID,916.599,VALID,0,VALID,99.5692,VALID,0.0679233,VALID,20.4593,VALID,164,VALID,0.903263,
2003-03-24, 03:35:00,VALID,916.589,VALID,0,VALID,99.573,VALID,0.101885,VALID,20.459,VALID,174,VALID,0.717634,
2003-03-24, 03:36:00,VALID,916.584,VALID,0,VALID,99.5781,VALID,0.0679233,VALID,20.4792,VALID,155,VALID,0.448117,
2003-03-24, 03:37:00,VALID,916.581,VALID,0,VALID,99.587,VALID,0.0509425,VALID,20.4698,VALID,144,VALID,0.727618,